Location: Unspecified
(51.6250°N, 0.8230°E)
Time: 15:55:10
(UTC+01:00)

Okean 3 - Visible Passes

Search period start: 22 September 2018 00:00
Search period end: 02 October 2018 00:00
Orbit: 576 x 603 km, 82.5° (Epoch: 21 September)

Date Brightness Start Highest point End Pass type
(mag) Time Alt. Az. Time Alt. Az. Time Alt. Az.
22 Sep 4.7 04:50:25 10° SSE 04:54:24 41° E 04:58:23 10° NNE visible
23 Sep 4.0 04:58:13 10° S 05:02:23 59° E 05:06:33 10° NNE visible
24 Sep 6.6 03:33:08 10° E 03:33:54 10° E 03:34:42 10° ENE visible
24 Sep 3.4 05:06:10 10° S 05:10:24 85° E 05:14:39 10° NNE visible
25 Sep 6.3 03:39:23 10° ESE 03:41:44 15° E 03:44:06 10° NE visible
25 Sep 3.4 05:14:29 11° SSW 05:18:28 68° WNW 05:22:40 10° N visible
26 Sep 5.9 03:46:45 11° SE 03:49:37 20° E 03:52:43 10° NE visible
26 Sep 3.7 05:23:21 16° SW 05:26:33 47° WNW 05:30:39 10° N visible
27 Sep 5.3 03:55:31 19° SE 03:57:31 28° E 04:01:07 10° NNE visible
27 Sep 4.1 05:32:06 18° SW 05:34:41 34° WNW 05:38:33 10° N visible
28 Sep 4.7 04:04:12 31° SE 04:05:28 39° E 04:09:23 10° NNE visible
28 Sep 4.6 05:40:47 17° WSW 05:42:51 25° WNW 05:46:21 10° NNW visible
29 Sep 4.0 04:12:48 50° SE 04:13:26 55° E 04:17:33 10° NNE visible
29 Sep 5.0 05:49:23 15° W 05:51:02 19° WNW 05:54:03 10° NNW visible
30 Sep 3.4 04:21:22 79° ESE 04:21:26 80° E 04:25:39 10° NNE visible
30 Sep 5.3 05:57:56 12° W 05:59:18 14° WNW 06:01:32 10° NNW visible
01 Oct 6.3 02:53:17 14° ENE 02:53:17 14° ENE 02:54:57 10° NE visible
01 Oct 3.4 04:29:51 67° NW 04:29:51 67° NW 04:33:42 10° N visible
01 Oct 5.5 06:06:58 10° WNW 06:07:35 10° WNW 06:08:11 10° NW visible
